Time,TemperatureF,DewpointF,PressureIn,WindDirection,WindDirectionDegrees,WindSpeedMPH,WindSpeedGustMPH,Humidity,HourlyPrecipIn,Conditions,Clouds,dailyrainin,SoftwareType,DateUTC
2017-03-30 00:04:00,50.5,43.0,30.01,SE,139,0.0,0.0,75,0.00,,,0.00,weatherlink.com 1.10,2017-03-30 04:04:00,
2017-03-30 00:19:00,50.0,43.0,29.99,SE,139,0.0,0.0,77,0.00,,,0.00,weatherlink.com 1.10,2017-03-30 04:19:00,
2017-03-30 00:33:00,50.0,43.0,30.00,SE,139,0.0,0.0,78,0.00,,,0.00,weatherlink.com 1.10,2017-03-30 04:33:00,
2017-03-30 00:49:00,49.7,43.0,29.99,SE,126,0.0,0.0,79,0.00,,,0.00,weatherlink.com 1.10,2017-03-30 04:49:00,
2017-03-30 01:04:00,49.7,44.0,29.99,SE,125,0.0,0.0,80,0.00,,,0.00,weatherlink.com 1.10,2017-03-30 05:04:00,
2017-03-30 01:18:00,50.1,44.0,29.99,ESE,120,0.0,1.0,80,0.00,,,0.00,weatherlink.com 1.10,2017-03-30 05:18:00,
2017-03-30 01:34:00,50.4,44.0,29.98,ESE,121,0.0,0.0,79,0.00,,,0.00,weatherlink.com 1.10,2017-03-30 05:34:00,
2017-03-30 01:48:00,50.3,44.0,29.96,ESE,113,0.0,0.0,79,0.00,,,0.00,weatherlink.com 1.10,2017-03-30 05:48:00,
2017-03-30 02:04:00,50.2,44.0,29.96,East,85,0.0,0.0,79,0.00,,,0.00,weatherlink.com 1.10,2017-03-30 06:04:00,
2017-03-30 02:19:00,50.0,44.0,29.96,ESE,118,0.0,0.0,79,0.00,,,0.00,weatherlink.com 1.10,2017-03-30 06:19:00,
2017-03-30 02:34:00,49.8,44.0,29.95,ESE,113,0.0,0.0,79,0.00,,,0.00,weatherlink.com 1.10,2017-03-30 06:34:00,
2017-03-30 02:50:00,49.5,43.0,29.94,SE,131,0.0,0.0,79,0.00,,,0.00,weatherlink.com 1.10,2017-03-30 06:50:00,
2017-03-30 03:04:00,49.3,43.0,29.94,SE,134,0.0,0.0,79,0.00,,,0.00,weatherlink.com 1.10,2017-03-30 07:04:00,
2017-03-30 03:19:00,49.2,43.0,29.94,ESE,120,0.0,0.0,79,0.00,,,0.00,weatherlink.com 1.10,2017-03-30 07:19:00,
2017-03-30 03:35:00,49.1,43.0,29.93,SE,134,0.0,0.0,79,0.00,,,0.00,weatherlink.com 1.10,2017-03-30 07:35:00,
2017-03-30 03:49:00,49.0,43.0,29.93,SE,136,0.0,0.0,79,0.00,,,0.00,weatherlink.com 1.10,2017-03-30 07:49:00,
2017-03-30 04:05:00,49.0,43.0,29.91,ESE,114,0.0,0.0,79,0.00,,,0.00,weatherlink.com 1.10,2017-03-30 08:05:00,
2017-03-30 04:19:00,48.9,43.0,29.90,ESE,114,0.0,0.0,79,0.00,,,0.00,weatherlink.com 1.10,2017-03-30 08:19:00,
2017-03-30 04:35:00,48.8,43.0,29.90,ENE,77,0.0,2.0,79,0.00,,,0.00,weatherlink.com 1.10,2017-03-30 08:35:00,
2017-03-30 04:49:00,48.7,42.0,29.88,East,99,0.0,0.0,78,0.00,,,0.00,weatherlink.com 1.10,2017-03-30 08:49:00,
2017-03-30 05:05:00,48.8,42.0,29.87,SSE,164,2.0,2.0,77,0.00,,,0.00,weatherlink.com 1.10,2017-03-30 09:05:00,
2017-03-30 05:20:00,48.9,41.0,29.86,ESE,118,0.0,1.0,75,0.00,,,0.00,weatherlink.com 1.10,2017-03-30 09:20:00,
2017-03-30 05:35:00,49.1,42.0,29.85,SE,124,0.0,0.0,75,0.00,,,0.00,weatherlink.com 1.10,2017-03-30 09:35:00,
2017-03-30 05:50:00,49.2,41.0,29.85,SE,124,0.0,4.0,74,0.00,,,0.00,weatherlink.com 1.10,2017-03-30 09:50:00,
2017-03-30 06:05:00,49.2,42.0,29.85,ESE,113,0.0,0.0,75,0.00,,,0.00,weatherlink.com 1.10,2017-03-30 10:05:00,
2017-03-30 06:21:00,49.4,41.0,29.85,SE,129,0.0,2.0,74,0.00,,,0.00,weatherlink.com 1.10,2017-03-30 10:21:00,
2017-03-30 06:35:00,49.4,41.0,29.84,ESE,113,0.0,0.0,73,0.00,,,0.00,weatherlink.com 1.10,2017-03-30 10:35:00,
2017-03-30 06:51:00,49.1,41.0,29.83,ESE,113,0.0,1.0,73,0.00,,,0.00,weatherlink.com 1.10,2017-03-30 10:51:00,
2017-03-30 07:06:00,48.8,40.0,29.84,ESE,115,0.0,0.0,73,0.00,,,0.00,weatherlink.com 1.10,2017-03-30 11:06:00,
2017-03-30 07:20:00,48.6,40.0,29.83,East,90,0.0,0.0,73,0.00,,,0.00,weatherlink.com 1.10,2017-03-30 11:20:00,
2017-03-30 07:36:00,48.7,40.0,29.83,NE,42,0.0,3.0,73,0.00,,,0.00,weatherlink.com 1.10,2017-03-30 11:36:00,
2017-03-30 07:52:00,48.7,40.0,29.83,ESE,123,0.0,1.0,73,0.00,,,0.00,weatherlink.com 1.10,2017-03-30 11:52:00,
2017-03-30 08:06:00,49.0,41.0,29.83,SE,124,0.0,1.0,73,0.00,,,0.00,weatherlink.com 1.10,2017-03-30 12:06:00,
2017-03-30 08:22:00,49.4,41.0,29.83,ENE,63,0.0,3.0,73,0.00,,,0.00,weatherlink.com 1.10,2017-03-30 12:22:00,
2017-03-30 08:36:00,49.7,41.0,29.82,SE,131,0.0,3.0,73,0.00,,,0.00,weatherlink.com 1.10,2017-03-30 12:36:00,
2017-03-30 08:52:00,49.9,42.0,29.82,ESE,116,0.0,4.0,73,0.00,,,0.00,weatherlink.com 1.10,2017-03-30 12:52:00,
2017-03-30 09:07:00,50.9,43.0,29.82,ESE,110,0.0,4.0,74,0.00,,,0.00,weatherlink.com 1.10,2017-03-30 13:07:00,
2017-03-30 09:22:00,51.9,43.0,29.81,SE,125,0.0,3.0,73,0.00,,,0.00,weatherlink.com 1.10,2017-03-30 13:22:00,
2017-03-30 09:36:00,53.3,45.0,29.80,ESE,115,1.0,4.0,73,0.00,,,0.00,weatherlink.com 1.10,2017-03-30 13:36:00,
2017-03-30 09:52:00,54.1,45.0,29.80,SE,129,0.0,6.0,72,0.00,,,0.00,weatherlink.com 1.10,2017-03-30 13:52:00,
2017-03-30 10:07:00,55.3,46.0,29.80,ESE,113,1.0,5.0,72,0.00,,,0.00,weatherlink.com 1.10,2017-03-30 14:07:00,
2017-03-30 10:23:00,56.1,47.0,29.79,East,79,0.0,7.0,72,0.00,,,0.00,weatherlink.com 1.10,2017-03-30 14:23:00,
2017-03-30 10:37:00,56.7,48.0,29.79,East,88,0.0,6.0,73,0.00,,,0.00,weatherlink.com 1.10,2017-03-30 14:37:00,